AAL1601 KMCO-KCLT

Flight info

Callsign AAL1601
Flight time N/A
Altitude 39000
Route FATHE4 VIYAP CHECR STOCR4
Aircraft A319/M-SDE3FGHIRWY/LB1

Departure

Time 2026-05-08 07:15
Airport Orlando International Airport (KMCO)

Arrival

Time N/A
Airport Charlotte Douglas International Airport (KCLT)
Time Latitude Longitude Altitude Speed Heading
2026-05-08 06:56 28.42675 -81.31522 88 ft 0 kts 122°
2026-05-08 07:06 28.42679 -81.31530 88 ft 2 kts 122°
2026-05-08 07:06 28.42687 -81.31544 88 ft 2 kts 122°
2026-05-08 07:06 28.42692 -81.31554 88 ft 2 kts 116°
2026-05-08 07:07 28.42695 -81.31570 88 ft 2 kts 86°
2026-05-08 07:07 28.42692 -81.31587 89 ft 2 kts 60°
2026-05-08 07:07 28.42682 -81.31600 89 ft 1 kts 36°
2026-05-08 07:07 28.42679 -81.31602 89 ft 0 kts 31°
2026-05-08 07:08 28.42696 -81.31599 89 ft 3 kts 345°
2026-05-08 07:08 28.42711 -81.31617 89 ft 3 kts 288°
2026-05-08 07:08 28.42711 -81.31633 89 ft 0 kts 268°
2026-05-08 07:10 28.42711 -81.31635 89 ft 2 kts 268°
2026-05-08 07:10 28.42709 -81.31695 89 ft 0 kts 269°
2026-05-08 07:11 28.42708 -81.31700 89 ft 1 kts 269°
2026-05-08 07:11 28.42708 -81.31712 89 ft 2 kts 269°
2026-05-08 07:11 28.42708 -81.31800 90 ft 20 kts 270°
2026-05-08 07:11 28.42698 -81.31960 91 ft 19 kts 240°
2026-05-08 07:12 28.42571 -81.31988 92 ft 19 kts 178°
2026-05-08 07:12 28.42434 -81.31987 92 ft 19 kts 180°
2026-05-08 07:12 28.42293 -81.31988 91 ft 20 kts 180°
2026-05-08 07:12 28.42150 -81.31986 92 ft 20 kts 179°
2026-05-08 07:13 28.42004 -81.31985 91 ft 21 kts 180°
2026-05-08 07:13 28.41857 -81.31982 91 ft 21 kts 180°
2026-05-08 07:13 28.41703 -81.31979 90 ft 22 kts 180°
2026-05-08 07:13 28.41560 -81.31996 89 ft 17 kts 220°
2026-05-08 07:14 28.41543 -81.32094 90 ft 12 kts 274°
2026-05-08 07:14 28.41561 -81.32187 90 ft 12 kts 318°
2026-05-08 07:14 28.41668 -81.32200 91 ft 32 kts
2026-05-08 07:14 28.42188 -81.32204 93 ft 113 kts 360°
2026-05-08 07:15 28.43188 -81.32217 227 ft 164 kts 357°
2026-05-08 07:15 28.44337 -81.32234 932 ft 168 kts 357°
2026-05-08 07:15 28.45510 -81.32235 1707 ft 168 kts 356°
2026-05-08 07:15 28.46675 -81.32245 2310 ft 174 kts 356°
2026-05-08 07:16 28.47950 -81.32274 2700 ft 190 kts 356°
2026-05-08 07:16 28.49333 -81.32291 3059 ft 210 kts 358°
2026-05-08 07:16 28.50866 -81.32305 3464 ft 227 kts 358°
2026-05-08 07:16 28.52496 -81.32318 3942 ft 244 kts 358°
2026-05-08 07:17 28.54204 -81.32330 4565 ft 247 kts 359°
2026-05-08 07:17 28.55948 -81.32239 5313 ft 256 kts
2026-05-08 07:17 28.57755 -81.32081 6009 ft 270 kts